Weather History for Karlovy Vary, Czech Republic

Change the Weather History Date:

Saturday, November 24, 2012

  Actual Average (EDQM) Record (EDQM)
Temperature  
Mean Temperature 40 °F -  
Max Temperature 46 °F 36 °F 53 °F (2006)
Min Temperature 35 °F 30 °F 23 °F (2005)
Degree Days  
Heating Degree Days 24    
Moisture  
Dew Point 37 °F    
Average Humidity 90    
Maximum Humidity 100    
Minimum Humidity 71    
Precipitation  
Precipitation 0.00 in - - ()
Sea Level Pressure  
Sea Level Pressure 30.10 in    
Wind  
Wind Speed 2 mph ()    
Max Wind Speed 6 mph    
Max Gust Speed -    
Visibility 2.9 miles    
Events Fog    
Averages and records for this station are not official NWS values.
T = Trace of Precipitation, MM = Missing Value Source: Averaged Metar Reports

Daily Weather History Graph

Daily Weather History Graph

Search for Another Location

Airport:

Trip Planner

Search our weather history database for the weather conditions in past years. The results will help you decide how hot, cold, wet, or windy it might be!

Date:

Astronomy

Nov. 24, 2012 Rise Set
Actual Time 7:36 AM CET 4:13 PM CET
Civil Twilight 6:59 AM CET 4:50 PM CET
Nautical Twilight 6:19 AM CET 5:30 PM CET
Astronomical Twilight 5:40 AM CET 6:09 PM CET
Moon 2:06 PM CET (11/24) 3:17 AM CET (11/24)
Length of Visible Light 9h 50m
Length of Day
8h 37m
Waxing Gibbous, 85% of the Moon is Illuminated
Nov 24
Waxing Gibbous
Nov 28
Full
Dec 6
Last Quarter
Dec 13
New
Dec 20
First Quarter

Hourly Weather History & Observations

Time (CET) Temp. Windchill Dew Point Humidity Pressure Visibility Wind Dir Wind Speed Gust Speed Precip Events Conditions
12:00 AM 39.2 °F 37.0 °F 37.4 °F 93% 30.15 in 3.7 mi West 3.5 mph - N/A   Overcast
1:00 AM 39.2 °F - 37.4 °F 93% 30.15 in 3.1 mi Variable 2.3 mph - N/A   Overcast
2:00 AM 39.2 °F 35.0 °F 37.4 °F 93% 30.15 in - WNW 5.8 mph - N/A   Overcast
3:00 AM 39.2 °F 37.0 °F 37.4 °F 93% 30.12 in 2.5 mi NW 3.5 mph - N/A   Overcast
4:00 AM 39.2 °F - 37.4 °F 93% 30.12 in - Variable 2.3 mph - N/A   Overcast
5:00 AM 37.4 °F - 37.4 °F 100% 30.12 in - Variable 2.3 mph - N/A   Overcast
6:00 AM 37.4 °F - 37.4 °F 100% 30.12 in 3.1 mi Variable 2.3 mph - N/A   Overcast
6:46 AM 37.4 °F - 35.6 °F 93% 30.12 in 1.9 mi Variable 1.2 mph - N/A   Overcast
6:48 AM 37.4 °F - 35.6 °F 93% 30.12 in 1.9 mi Variable 2.3 mph - N/A   Overcast
7:00 AM 37.4 °F - 35.6 °F 93% 30.12 in 1.9 mi Variable 2.3 mph - N/A   Overcast
7:22 AM 37.4 °F - 35.6 °F 93% 30.12 in 0.9 mi Variable 2.3 mph - N/A   Overcast
7:30 AM 37.4 °F - 35.6 °F 93% 30.12 in 0.9 mi Variable 2.3 mph - N/A   Overcast
8:00 AM 37.4 °F - 35.6 °F 93% 30.12 in 0.5 mi Variable 1.2 mph - N/A   Mostly Cloudy
8:18 AM 37.4 °F 34.9 °F 35.6 °F 93% 30.12 in 0.9 mi East 3.5 mph - N/A Fog Scattered Clouds
8:30 AM 37.4 °F - 35.6 °F 93% 30.12 in 2.2 mi Variable 2.3 mph - N/A   Partly Cloudy
9:00 AM 37.4 °F - 37.4 °F 100% 30.12 in 2.8 mi Calm Calm - N/A   Partly Cloudy
9:30 AM 39.2 °F - 37.4 °F 93% 30.12 in 3.1 mi Calm Calm - N/A   Scattered Clouds
10:00 AM 39.2 °F - 37.4 °F 93% 30.12 in 4.0 mi Variable 1.2 mph - N/A   Partly Cloudy
10:30 AM 39.2 °F - 37.4 °F 93% 30.12 in 5.6 mi Variable 2.3 mph - N/A   Partly Cloudy
11:00 AM 41.0 °F 39.0 °F 37.4 °F 87% 30.15 in 6.2 mi WSW 3.5 mph - N/A   Partly Cloudy
11:30 AM 41.0 °F - 37.4 °F 87% 30.12 in - Variable 2.3 mph - N/A   Clear
12:00 PM 44.6 °F 43.1 °F 37.4 °F 76% 30.12 in - WSW 3.5 mph - N/A   Clear
12:30 PM 42.8 °F 40.1 °F 37.4 °F 81% 30.12 in - WNW 4.6 mph - N/A   Clear
1:00 PM 42.8 °F 40.1 °F 37.4 °F 81% 30.12 in - WNW 4.6 mph - N/A   Clear
1:30 PM 44.6 °F 42.2 °F 37.4 °F 76% 30.12 in - WNW 4.6 mph - N/A   Clear
2:00 PM 44.6 °F 43.1 °F 39.2 °F 81% 30.09 in - WNW 3.5 mph - N/A   Clear
2:30 PM 46.4 °F 45.2 °F 37.4 °F 71% 30.09 in - NNW 3.5 mph - N/A   Clear
3:00 PM 44.6 °F 41.4 °F 37.4 °F 76% 30.09 in - WNW 5.8 mph - N/A   Clear
3:30 PM 44.6 °F - 37.4 °F 76% 30.09 in - Variable 2.3 mph - N/A   Clear
4:00 PM 41.0 °F - 35.6 °F 81% 30.09 in - Variable 2.3 mph - N/A   Clear
4:30 PM 39.2 °F - 37.4 °F 93% 30.09 in - Variable 1.2 mph - N/A   Clear
5:00 PM 37.4 °F 33.8 °F 35.6 °F 93% 30.09 in - East 4.6 mph - N/A   Clear
5:30 PM 37.4 °F - 35.6 °F 93% 30.09 in - Variable 2.3 mph - N/A   Clear
6:00 PM 37.4 °F - 35.6 °F 93% 30.09 in - ESE 1.2 mph - N/A   Clear
6:30 PM 39.2 °F - 37.4 °F 93% 30.06 in 5.6 mi Variable 1.2 mph - N/A   Unknown
7:00 PM 37.4 °F - 35.6 °F 93% 30.06 in 5.6 mi Variable 2.3 mph - N/A   Unknown
7:30 PM 37.4 °F - 35.6 °F 93% 30.06 in 5.0 mi Variable 2.3 mph - N/A   Unknown
8:00 PM 37.4 °F - 35.6 °F 93% 30.06 in 4.3 mi Variable 2.3 mph - N/A   Unknown
8:53 PM 37.4 °F - 35.6 °F 93% 30.06 in 0.9 mi Calm Calm - N/A   Partly Cloudy
9:00 PM 37.4 °F - 35.6 °F 93% 30.06 in 0.7 mi Variable 1.2 mph - N/A Fog Scattered Clouds
10:00 PM 35.6 °F 32.8 °F 35.6 °F 100% 30.06 in 1.2 mi East 3.5 mph - N/A   Partly Cloudy
11:00 PM 37.4 °F - 37.4 °F 100% 30.04 in 3.1 mi Variable 2.3 mph - N/A   Mist